K9JM Weather Reports


time (UTC)temp
F
wind
direction
speed
knots
gust
knots
rain 1hr
in
rain 24hr
in
rain mn
in
humidity
%
barometer
mb
20260904054517 58 0.0 4.3 0.12 0.24 0.24 94 1012.0
20260904053017 58 0.0 0.9 0.12 0.21 0.21 94 1011.9
20260904051515 58 0.0 0.9 0.08 0.15 0.15 94 1012.0
20260904050017 59 0.0 0.9 0.06 0.13 0.13 94 1012.1
20260904044517 59 0.0 2.6 0.06 0.12 0.12 94 1012.1
20260904043017 59 0.0 1.7 0.04 0.09 0.09 93 1011.9
20260904041517 59 0.0 0.9 0.07 0.07 0.07 93 1012.0
20260904040017 59 0.0 0.9 0.07 0.07 0.07 93 1011.7
20260904034517 59 0.0 0.9 0.06 0.06 0.06 93 1011.8
20260904033017 59 0.0 0.0 0.05 0.05 0.05 92 1011.8
20260904031517 59 0.0 2.6 0.00 0.00 0.00 92 1011.7
20260904030017 60 0.0 0.0 0.00 0.00 0.00 91 1011.5
20260904024517 60 0.0 0.0 0.00 0.00 0.00 90 1011.7
20260904023017 60 0.0 0.9 0.00 0.00 0.00 89 1011.9
20260904021537 61 0.0 1.7 0.00 0.00 0.00 88 1011.9
20260904020017 61 0.0 0.9 0.00 0.00 0.00 86 1011.9
20260904014517 62 0.0 0.9 0.00 0.00 0.00 84 1012.1
20260904013017 62 0.0 0.0 0.00 0.00 0.00 82 1012.2
20260904011517 62 0.0 1.7 0.00 0.00 0.00 82 1012.3
20260904010017 63 0.0 2.6 0.00 0.00 0.00 81 1012.4
20260904004517 62 0.0 0.9 0.00 0.00 0.00 81 1012.5
20260904003037 62 0.0 0.9 0.00 0.00 0.00 80 1012.6
20260904001517 62 0.0 2.6 0.00 0.00 0.00 81 1012.7
20260904000017 62 0.0 1.7 0.00 0.00 0.00 80 1012.7
20260903234517 63 0.0 2.6 0.00 0.00 0.00 79 1012.8
20260903233017 63 0.0 3.5 0.00 0.00 0.00 79 1012.8
20260903231517 62 0.0 2.6 0.00 0.00 0.00 79 1012.8
20260903230017 62 113 0.9 4.3 0.00 0.00 0.00 79 1013.0
20260903224517 63 113 0.9 3.5 0.00 0.00 0.00 79 1013.2
20260903223017 63 0.0 0.9 0.00 0.00 0.00 78 1013.3
20260903221517 63 0.0 2.6 0.00 0.00 0.00 78 1013.6
20260903220017 63 0.0 1.7 0.00 0.00 0.00 77 1013.8
20260903214516 63 0.0 3.5 0.00 0.00 0.00 75 1013.9
20260903213017 63 0.0 3.5 0.00 0.00 0.00 75 1013.9
20260903211517 63 0.0 0.9 0.00 0.00 0.00 74 1014.0
20260903210017 63 0.0 1.7 0.00 0.00 0.00 73 1014.0
20260903204516 64 0.0 0.9 0.00 0.00 0.00 74 1014.1
20260903203016 64 0.0 0.9 0.00 0.00 0.00 72 1014.0
20260903201517 63 180 0.9 4.3 0.00 0.00 0.00 71 1014.1
20260903200056 63 135 0.9 3.5 0.00 0.00 0.00 69 1014.3
20260903194517 64 0.0 3.5 0.00 0.00 0.00 67 1014.4
20260903193016 63 0.0 1.7 0.00 0.00 0.00 67 1014.5
20260903191516 63 0.0 1.7 0.00 0.00 0.00 68 1014.5
20260903190016 64 158 0.9 3.5 0.00 0.00 0.00 66 1014.9
20260903184516 64 158 0.9 5.2 0.00 0.00 0.00 66 1014.9
20260903183017 64 135 0.9 4.3 0.00 0.00 0.00 67 1015.0
20260903181537 63 113 0.9 4.3 0.00 0.00 0.00 68 1014.9
20260903180017 64 135 0.9 4.3 0.00 0.00 0.00 67 1015.1
20260903174516 63 113 0.9 5.2 0.00 0.00 0.00 67 1015.1
20260903173016 62 113 0.9 3.5 0.00 0.00 0.00 66 1014.9
20260903171517 61 158 0.9 3.5 0.00 0.00 0.00 65 1014.9
20260903170037 61 135 0.9 4.3 0.00 0.00 0.00 64 1015.0
20260903164516 61 113 0.9 4.3 0.00 0.00 0.00 65 1015.0
20260903163017 60 113 1.7 4.3 0.00 0.00 0.00 66 1015.0
20260903161516 60 113 0.9 2.6 0.00 0.00 0.00 67 1015.2
20260903160036 59 135 0.9 3.5 0.00 0.00 0.00 68 1015.1
20260903154517 59 113 0.9 3.5 0.00 0.00 0.00 70 1015.3
20260903153016 59 113 0.9 2.6 0.00 0.00 0.00 70 1015.4
20260903151516 59 113 0.9 4.3 0.00 0.00 0.00 70 1015.1
20260903150016 59 113 0.9 3.5 0.00 0.00 0.00 69 1015.2
20260903144516 58 113 0.9 2.6 0.00 0.00 0.00 68 1015.1
20260903143016 58 0.0 2.6 0.00 0.00 0.00 69 1015.2
20260903141516 58 113 0.9 1.7 0.00 0.00 0.00 70 1015.0
20260903140016 58 0.0 1.7 0.00 0.00 0.00 68 1015.0
20260903134516 58 0.0 0.0 0.00 0.00 0.00 67 1014.9
20260903133016 58 0.0 0.9 0.00 0.00 0.00 67 1015.0
20260903131516 58 90 0.9 2.6 0.00 0.00 0.00 67 1015.0
20260903130017 58 90 0.9 1.7 0.00 0.00 0.00 67 1015.1
20260903124516 58 113 0.9 1.7 0.00 0.00 0.00 68 1015.1
20260903123016 58 0.0 1.7 0.00 0.00 0.00 69 1015.2
20260903121516 58 90 0.9 2.6 0.00 0.00 0.00 69 1015.4
20260903120016 58 90 0.9 3.5 0.00 0.00 0.00 69 1015.6
20260903114516 58 90 0.9 3.5 0.00 0.00 0.00 68 1015.6
20260903113016 58 0.0 4.3 0.00 0.00 0.00 69 1015.7
20260903111516 58 113 0.9 3.5 0.00 0.00 0.00 71 1015.8
20260903110016 58 0.0 1.7 0.00 0.00 0.00 72 1016.1
20260903104516 58 0.0 2.6 0.00 0.00 0.00 74 1016.1
20260903103016 58 0.0 2.6 0.00 0.00 0.00 74 1015.8
20260903101556 58 0.0 2.6 0.00 0.00 0.00 74 1016.0
20260903100016 58 113 0.9 3.5 0.00 0.00 0.00 75 1016.0
20260903094516 59 0.0 2.6 0.00 0.00 0.00 75 1016.1
20260903093036 59 135 0.9 3.5 0.00 0.00 0.00 74 1016.1
20260903091516 59 113 0.9 3.5 0.00 0.00 0.00 73 1016.2
20260903090016 59 0.0 3.5 0.00 0.00 0.00 73 1016.2
20260903084516 59 0.0 2.6 0.00 0.00 0.00 73 1016.1
20260903083016 59 113 0.9 2.6 0.00 0.00 0.00 74 1016.3
20260903081516 59 0.0 1.7 0.00 0.00 0.00 75 1016.4
20260903080016 60 0.0 0.9 0.00 0.00 0.00 74 1016.5
20260903074516 60 0.0 0.9 0.00 0.00 0.00 73 1016.6
20260903073036 60 0.0 0.9 0.00 0.00 0.00 72 1016.4
20260903071536 60 0.0 1.7 0.00 0.00 0.00 72 1016.7
20260903070016 60 0.0 1.7 0.00 0.00 0.00 72 1016.5
20260903064517 60 0.0 0.9 0.00 0.00 0.00 73 1016.6
20260903063017 60 0.0 0.9 0.00 0.00 0.00 74 1016.8
20260903061537 60 0.0 0.9 0.00 0.00 0.00 74 1017.0
20260903060017 60 0.0 0.9 0.00 0.00 0.00 74 1017.0